Regional Weather Roundup
Issued by NWS

Home | Current Version | Previous Version | Graphics & Text | Print | Product List | Glossary On
Versions: 1 2 3 4 5 6 7 8 9 10 11 12 13 14 15 16 17 18 19 20 21 22 23 24 25 26 27 28 29 30 31 32 33 34 35 36 37 38 39 40 41 42 43 44 45 46 47 48 49 50
000
ASUS43 KLMK 180202
RWRKY
KENTUCKY REGIONAL WEATHER ROUNDUP
NATIONAL WEATHER SERVICE LOUISVILLE KY
900 PM EST WED DEC 17 2014

NOTE "FAIR" INDICATES FEW OR NO CLOUDS BELOW 12,000 FEET
WITH NO SIGNIFICANT WEATHER AND/OR OBSTRUCTIONS TO VISIBILITY.

KYZ001>023-026-027-061>063-070>075-180300-
WESTERN AND SOUTH CENTRAL KENTUCKY

CITY           SKY/WX    TMP DP  RH WIND       PRES   REMARKS
PADUCAH        MOCLDY    34  29  82 CALM      30.27F
HENDERSON      PTCLDY    28  23  80 CALM      30.29S
OWENSBORO      CLEAR     32  26  78 N6        30.30S WCI  26
HOPKINSVILLE   CLEAR     32  26  78 N5        30.28S WCI  27
BOWLING GREEN  PTCLDY    33  25  72 N5        30.29R WCI  29
GLASGOW        NOT AVBL
$$

KYZ024-025-028>034-038-045-046-053-180300-
NORTH CENTRAL KENTUCKY

CITY           SKY/WX    TMP DP  RH WIND       PRES   REMARKS
LOUISVILLE/SDF CLOUDY    32  24  72 NW10      30.28S WCI  24
LOUISVILLE/LOU CLOUDY    32  24  72 N8        30.29R WCI  25
FORT KNOX      PTCLDY    27  23  85 VRB5      30.26S WCI  22
$$

KYZ035>037-039>044-047>052-055>060-089>105-180300-
NORTHEAST KENTUCKY

CITY           SKY/WX    TMP DP  RH WIND       PRES   REMARKS
LEXINGTON      PTCLDY    28  23  81 NW5       30.25R WCI  23
COVINGTON      CLOUDY    29  20  69 NW8       30.25R WCI  21
FRANKFORT      CLOUDY    31  24  75 NW8       30.25R WCI  23
$$

KYZ054-064>069-076>088-106>120-180300-
SOUTHEAST KENTUCKY

CITY           SKY/WX    TMP DP  RH WIND       PRES   REMARKS
JACKSON        CLEAR     30  24  78 W3        30.21S
LONDON         CLEAR     30  25  81 CALM      30.23R
SOMERSET       NOT AVBL
MIDDLESBORO    NOT AVBL
MONTICELLO     CLEAR     25  23  91 CALM      30.27S
$$



USA.gov is the U.S. government's official web portal to all federal, state and local government web resources and services.